CAPE
nan nan nan nan nan nan nan nan nan nan nan nan nan nan nan 0 4 4 9 18 18 22 18 20 20 24 20 16 28 28 61 99 131 131 143 115 100 100 74 51 51 41 33 21 21 17 15 18 18 19 12 6 3 3 1 0 0 0 0 21 21 45 75 113 113 185 294 454 699 699 872 1010 1242 1242 1356 1310 1315 1315 1148 877 877 635 444 330 330 300
nan nan nan nan nan nan nan nan nan nan nan nan nan nan nan 1 6 6 16 28 28 40 50 41 41 37 40 29 42 42 69 106 118 118 133 141 117 117 100 76 76 75 55 37 37 28 22 23 23 23 14 5 0 0 0 nan nan nan nan 0 0 19 41 66 66 125 173 296 540 540 739 953 1142 1142 1258 1316 1281 1281 1122 768 768 518 285 206 206 307
nan nan nan nan nan nan nan nan nan nan 1 2 4 4 1 2 7 7 11 15 15 29 39 45 45 50 41 42 52 52 76 105 126 126 127 137 115 115 108 91 91 90 79 58 58 43 32 31 31 25 20 14 9 9 2 0 0 nan nan nan nan 0 19 28 28 46 90 170 330 330 552 786 975 975 1115 1136 1195 1195 1060 673 673 418 205 148 148 269
nan nan nan nan nan nan nan nan nan nan nan nan 0 0 nan 2 6 6 10 9 9 17 27 30 30 41 49 51 62 62 85 110 125 125 131 133 124 124 102 96 96 83 92 79 79 63 45 31 31 25 23 19 12 12 8 0 0 nan nan nan nan nan 0 5 5 9 18 44 126 126 319 569 769 769 992 1113 1139 1139 995 612 612 370 166 115 115 180
nan nan nan nan nan nan nan nan nan nan nan nan nan nan nan 3 14 14 25 39 39 73 88 73 73 48 61 45 55 55 83 113 119 119 125 126 118 118 110 99 99 98 88 87 87 70 49 29 29 18 16 18 13 13 11 2 2 nan nan nan nan nan nan nan nan nan 0 5 7 7 88 334 553 553 814 1055 1024 1024 823 518 518 248 130 93 93 131
nan nan nan nan nan nan nan nan nan nan nan nan nan nan nan 7 27 27 48 70 70 81 65 50 50 55 65 58 51 51 80 90 94 94 103 112 114 114 104 93 93 95 89 78 78 70 43 23 23 7 7 9 9 9 6 2 2 nan nan nan nan nan nan 2 2 nan nan nan nan nan 2 73 318 318 594 809 736 736 515 329 329 168 84 70 70 101
nan nan nan nan nan nan nan nan nan nan nan nan nan nan 0 3 10 10 16 8 8 3 2 2 2 16 50 52 44 44 70 83 57 57 42 59 73 73 100 100 100 105 97 86 86 57 40 22 22 6 1 3 3 3 2 2 2 0 nan nan nan nan nan 4 4 3 1 nan nan nan nan 2 56 56 381 613 585 585 388 234 234 99 28 28 28 50
nan nan nan nan nan nan nan nan nan nan nan 2 2 2 nan nan nan nan nan nan nan 0 5 7 7 11 24 29 34 34 10 nan nan nan nan 4 9 9 19 41 41 64 76 71 71 48 30 17 17 4 1 0 1 1 0 nan nan nan nan nan nan nan nan nan nan 1 nan nan nan nan nan nan nan nan 4 95 206 206 216 165 165 54 5 1 1 3
10 10 3 nan nan 2 1 0 nan nan 5 18 23 23 18 13 7 7 8 13 13 25 30 23 23 19 12 14 11 11 11 8 10 10 13 6 2 2 0 4 4 15 32 41 41 36 18 8 8 1 nan nan nan nan nan nan nan nan nan nan nan nan nan nan nan nan nan nan nan nan nan nan nan nan nan 2 7 7 18 22 22 7 2 0 0 1
47 40 32 25 25 30 33 31 16 16 12 29 33 33 33 35 38 38 34 28 28 17 8 2 2 0 nan nan nan nan 1 7 18 18 27 25 20 20 8 1 1 nan 10 13 13 14 4 0 0 nan nan nan 0 0 nan nan nan nan nan nan nan nan nan nan nan nan nan 0 0 0 nan nan nan nan nan nan nan nan nan nan nan nan 0 15 15 9
60 58 51 47 47 44 41 39 27 27 4 3 2 2 3 11 30 30 27 4 4 nan nan nan nan nan nan nan nan nan nan nan nan nan 2 12 23 23 19 9 9 10 8 4 4 nan nan 0 0 0 0 0 nan nan nan nan nan nan nan nan nan 0 nan nan nan nan nan nan nan nan nan nan nan nan nan nan nan nan nan nan nan nan 0 25 25 27
71 62 59 49 49 37 24 13 nan nan nan nan nan nan nan nan 2 2 1 nan nan nan nan nan nan nan nan nan 0 0 0 nan nan nan nan nan 2 2 nan nan nan nan nan nan nan nan nan nan nan 0 0 nan nan nan nan nan nan nan nan 0 0 1 2 1 1 nan nan nan nan nan nan nan nan nan nan nan nan nan nan nan nan nan 0 15 15 23
65 53 45 35 35 19 12 1 nan nan nan nan nan nan nan nan nan nan 0 0 0 nan nan 1 1 7 22 34 37 37 22 8 4 4 nan 0 nan nan nan nan nan nan nan nan nan nan nan nan nan nan nan nan nan nan nan nan nan nan nan 0 0 3 4 2 2 nan nan nan nan nan nan nan nan nan nan nan nan nan nan nan nan nan nan 3 3 16
52 32 25 23 23 14 9 0 nan nan nan nan nan nan nan nan nan nan 1 1 1 nan 11 38 38 48 43 48 51 51 28 17 12 12 10 0 nan nan nan nan nan nan nan nan nan nan nan nan nan nan nan nan nan nan nan nan nan nan nan 0 0 3 4 3 3 0 nan nan nan nan nan nan nan nan nan nan nan nan nan nan nan nan nan 0 0 8
36 26 22 13 13 13 10 3 0 0 nan nan nan nan 1 1 4 4 7 17 17 23 60 85 85 39 1 nan nan nan nan nan nan nan 2 nan nan nan nan nan nan nan nan nan nan nan nan nan nan nan nan nan nan nan nan nan nan nan nan 1 1 2 4 4 4 2 0 0 nan nan nan nan nan nan nan nan nan nan nan nan nan nan nan nan nan 1
30 31 23 19 19 17 15 11 6 6 3 4 8 8 11 10 15 15 25 43 43 49 52 23 23 4 nan nan nan nan nan nan nan nan nan nan nan nan nan nan nan nan nan nan nan nan nan nan nan nan nan nan nan nan nan nan nan nan nan 0 0 2 3 3 3 2 2 1 0 0 nan nan nan nan nan nan nan nan nan nan nan nan nan nan nan 0
34 37 45 43 43 31 24 21 16 16 17 16 17 17 20 22 33 33 43 68 68 55 32 19 19 11 4 nan nan nan nan nan 2 2 6 nan nan nan nan nan nan nan nan nan nan nan nan nan nan nan nan nan nan nan nan nan nan nan nan nan nan 1 2 3 3 3 3 2 2 2 0 nan nan nan nan nan nan nan nan nan nan nan nan nan nan nan
36 46 60 52 52 41 32 26 27 27 26 26 24 24 21 22 30 30 49 66 66 50 31 26 26 23 20 13 nan nan nan nan 1 1 nan 5 nan nan nan nan nan nan nan nan nan nan nan nan nan nan nan nan nan nan nan nan nan nan nan nan nan 1 2 3 3 3 3 2 1 1 nan nan nan nan nan nan nan nan nan nan nan nan nan nan nan nan
33 41 45 49 49 40 38 35 37 37 36 32 33 33 32 29 43 43 50 48 48 40 39 41 41 39 47 44 23 23 nan nan 5 5 4 3 nan nan nan nan nan nan nan nan nan nan nan nan nan nan nan nan nan nan nan nan nan nan nan nan nan 1 2 3 3 3 3 2 nan nan nan nan nan nan nan nan nan nan nan nan nan nan nan nan nan 0
36 35 35 40 40 39 42 45 40 40 37 35 41 41 34 45 50 50 53 51 51 47 48 55 55 51 48 32 0 0 nan nan 1 1 7 2 1 1 nan nan nan nan nan nan nan nan nan nan nan nan nan nan nan nan nan nan nan nan nan 0 0 1 2 3 3 3 3 1 nan nan nan nan nan nan nan nan nan nan nan nan nan nan nan 0 0 1
38 31 24 37 37 48 51 43 29 29 30 26 9 9 24 34 42 42 52 61 61 65 59 67 67 58 39 32 10 10 nan 0 8 8 12 6 2 2 nan nan nan nan nan nan nan nan nan nan nan nan nan nan nan nan nan nan nan 0 0 0 0 1 2 2 2 2 1 nan nan nan nan nan nan nan nan nan nan nan nan nan nan nan nan 1 1 4
26 31 31 41 41 52 74 34 39 39 35 29 22 22 41 50 58 58 72 57 57 55 57 61 61 45 39 36 13 13 5 9 17 17 18 11 3 3 nan nan nan nan nan nan nan nan nan nan nan nan nan nan nan nan nan 0 0 0 1 1 1 1 1 1 1 1 nan nan nan nan nan nan nan nan nan nan nan nan nan nan nan nan 0 2 2 7
21 33 48 64 64 71 59 34 34 34 40 34 43 43 30 25 22 22 14 15 15 23 29 23 23 18 24 21 10 10 6 12 18 18 16 15 7 7 nan nan nan nan nan nan nan nan nan nan nan nan nan nan 0 0 1 2 2 2 1 1 1 1 1 0 0 nan nan nan nan nan nan nan nan nan nan nan nan nan nan nan nan nan 1 5 5 9
21 49 67 79 79 63 35 22 18 18 19 16 8 8 4 3 2 2 1 5 5 10 14 14 14 15 11 8 5 5 3 6 5 5 5 11 9 9 nan nan nan nan nan nan nan nan nan nan nan nan nan 1 2 2 3 3 3 3 2 1 1 1 1 nan nan nan nan nan nan nan nan nan nan nan nan nan nan nan nan nan nan 1 3 7 7 12
26 65 77 79 79 77 72 79 56 56 13 2 0 0 0 1 5 5 6 9 9 13 14 15 15 11 0 1 4 4 nan nan nan nan nan nan nan nan nan nan nan nan nan nan nan nan nan nan nan nan nan 3 4 4 4 4 4 3 3 2 2 2 nan nan nan nan nan nan nan nan nan nan nan nan nan 0 0 0 0 2 2 3 6 10 10 13
58 80 80 120 120 157 156 105 59 59 27 7 6 6 7 18 21 21 19 14 14 8 5 8 8 12 11 8 4 4 0 nan nan nan nan 9 4 4 nan nan nan nan nan nan nan nan nan nan nan nan nan 1 3 3 5 5 5 6 6 6 6 3 nan nan nan nan nan nan nan nan 0 1 1 1 2 2 2 2 3 6 6 7 10 12 12 18
108 150 195 188 188 152 111 87 79 79 81 61 26 26 26 28 27 27 17 16 16 8 5 3 3 4 0 nan nan nan 2 nan nan nan 1 11 6 6 nan nan nan nan nan nan nan nan nan nan nan nan nan nan 1 1 3 7 7 11 12 8 8 2 nan nan nan nan nan 0 2 2 3 4 5 5 6 6 7 7 9 11 11 12 13 14 14 18
111 120 112 103 103 105 96 88 85 85 75 73 72 72 50 26 14 14 20 28 28 9 nan nan nan nan nan nan nan nan nan nan nan nan nan 4 13 13 nan nan nan nan nan nan nan nan 1 0 0 nan nan nan 1 1 3 12 12 26 19 8 8 0 nan nan nan 0 2 3 6 6 8 9 11 11 12 11 13 13 14 16 16 17 18 12 12 3
85 79 82 92 92 108 98 85 71 71 61 63 74 74 55 20 7 7 23 24 24 14 9 8 8 4 3 1 nan nan nan nan nan nan nan 1 12 12 nan nan nan nan nan nan nan nan nan nan nan nan nan 0 0 0 2 13 13 10 11 3 3 nan 0 1 1 3 5 8 10 10 13 16 19 19 19 19 18 18 19 22 22 22 19 7 7 nan
32 52 68 85 85 91 74 35 42 42 53 59 67 67 59 28 21 21 32 25 25 16 12 14 14 8 2 2 0 0 nan nan nan nan nan nan nan nan nan nan nan nan nan nan nan nan nan nan nan nan 0 1 0 0 1 0 0 nan nan 2 2 2 3 5 5 8 11 13 15 15 18 23 24 24 23 22 21 21 24 27 27 16 3 nan nan nan
3 6 13 29 29 24 8 2 16 16 42 58 54 54 45 25 24 24 33 24 24 9 6 9 9 5 3 2 0 0 nan nan nan nan nan 8 nan nan nan nan nan nan nan nan nan nan nan nan nan nan 0 1 0 0 0 0 0 nan nan nan nan 2 11 13 13 15 18 18 22 22 24 25 25 25 25 24 24 24 27 26 26 8 nan nan nan nan
2 8 9 9 9 4 0 2 3 3 5 10 13 13 28 42 39 39 11 0 0 nan 1 4 4 5 7 5 3 3 1 nan nan nan 2 6 7 7 3 nan nan nan nan nan nan nan nan nan nan nan nan nan nan nan nan 0 0 nan nan nan nan nan 13 22 22 19 21 30 33 33 29 27 25 25 26 28 26 26 26 21 21 5 nan nan nan nan
6 10 10 9 9 2 nan 3 8 8 8 9 12 12 13 24 37 37 9 nan nan nan 0 3 3 4 5 3 2 2 2 0 4 4 15 10 8 8 5 1 1 nan nan nan nan nan nan nan nan nan nan nan nan nan nan 0 0 0 nan nan nan nan nan 2 2 1 8 14 17 17 29 25 28 28 30 28 29 29 26 21 21 8 nan nan nan nan
4 18 15 3 3 1 0 3 6 6 10 10 14 14 14 12 8 8 4 nan nan nan nan nan nan 2 4 3 1 1 1 1 13 13 24 24 17 17 13 8 8 1 nan nan nan nan nan nan nan nan nan nan nan nan nan nan nan 0 nan nan nan nan nan nan nan nan nan nan nan nan 1 9 26 26 27 30 31 31 29 23 23 11 2 nan nan nan
10 22 12 1 1 nan 1 3 5 5 7 7 7 7 5 1 nan nan nan nan nan nan nan nan nan nan 2 3 1 1 1 nan 7 7 20 20 16 16 14 12 12 7 nan nan nan nan nan nan nan nan nan nan nan nan nan nan nan nan nan nan nan nan nan nan nan nan nan nan nan nan nan nan 1 1 9 25 34 34 32 25 25 12 6 1 1 nan
15 19 9 2 2 0 2 3 3 3 4 2 0 0 0 nan nan nan nan nan nan nan nan nan nan nan 0 3 4 4 4 2 5 5 11 9 9 9 9 11 11 9 2 nan nan nan nan nan nan nan nan nan nan nan nan nan nan nan nan nan nan nan nan nan nan nan nan nan nan nan nan nan nan nan 2 30 40 40 39 29 29 18 10 6 6 0
18 24 13 3 3 3 6 2 1 1 1 1 0 0 2 0 nan nan nan nan nan nan nan nan nan 0 5 3 2 2 1 nan nan nan 3 3 4 4 6 7 7 11 2 nan nan nan nan nan nan nan nan nan nan nan nan nan nan nan nan nan nan nan nan nan nan nan nan nan nan nan nan nan nan nan 5 36 40 40 41 36 36 27 22 21 21 13
23 23 14 6 6 7 4 1 0 0 0 2 3 3 2 1 nan nan nan nan nan nan nan nan nan nan 7 14 0 0 nan nan nan nan 1 1 3 3 7 4 4 6 1 nan nan nan nan nan nan nan nan nan nan nan nan nan nan nan nan nan nan nan nan nan nan nan nan nan nan nan nan nan nan nan nan 6 5 5 0 5 5 27 29 32 32 30
24 20 13 12 12 8 4 2 1 1 1 1 2 2 1 1 0 0 nan nan nan nan nan nan nan nan nan nan 2 2 2 0 0 0 0 2 3 3 3 1 1 0 nan nan nan nan nan nan nan nan nan nan nan nan nan nan nan nan nan nan nan nan nan nan nan nan nan nan nan nan nan nan nan nan nan nan nan nan nan nan nan 8 2 0 0 20
31 24 19 18 18 7 4 3 1 1 0 3 5 5 2 0 nan nan nan nan nan nan nan nan nan nan nan 0 0 0 0 nan 1 1 nan nan 0 0 1 0 0 nan nan nan nan nan nan nan nan nan nan nan nan nan nan nan nan nan nan nan nan nan nan nan nan nan nan nan nan nan nan nan nan nan nan nan nan nan nan nan nan nan nan nan nan nan
35 23 20 12 12 9 8 3 nan nan 0 2 0 0 nan nan nan nan nan nan nan nan nan nan nan nan nan nan nan nan nan nan 1 1 nan nan 0 0 1 nan nan nan nan nan nan nan nan nan nan nan nan nan nan nan nan nan nan nan nan nan nan nan nan nan nan nan nan nan nan nan nan nan nan nan nan nan nan nan nan nan nan nan nan nan nan nan
42 32 22 14 14 9 4 1 1 1 1 nan nan nan nan nan nan nan nan nan nan nan nan nan nan nan nan nan nan nan nan nan nan nan 0 nan nan nan 0 nan nan nan nan nan nan nan nan nan nan nan nan nan nan nan nan nan nan nan nan nan nan nan nan nan nan nan nan nan nan nan nan nan nan nan nan nan nan nan nan nan nan nan nan nan nan nan
34 31 22 18 18 11 8 5 4 4 1 nan nan nan nan nan nan nan nan nan nan nan nan nan nan nan nan nan nan nan nan nan nan nan 0 nan nan nan 0 0 0 nan nan nan nan nan nan nan nan nan nan nan nan nan nan nan nan nan nan nan nan nan nan nan nan nan nan nan nan nan nan nan nan nan nan nan nan nan nan nan nan nan nan nan nan nan
36 26 22 17 17 9 6 4 0 0 0 nan nan nan nan nan nan nan nan nan nan nan nan nan nan nan nan nan nan nan nan nan nan nan nan 3 0 0 nan nan nan nan nan nan nan nan nan nan nan nan nan nan nan nan nan nan nan nan nan nan nan nan nan nan nan nan nan nan nan nan nan nan nan nan nan nan nan nan nan nan nan nan nan nan nan nan
24 22 22 19 19 14 7 2 0 0 nan nan nan nan nan nan nan nan nan nan nan nan nan nan nan nan nan nan nan nan nan nan nan nan nan 2 6 6 0 nan nan nan nan nan nan nan nan nan nan nan nan nan nan nan nan nan nan nan nan nan nan nan nan nan nan nan nan nan nan nan nan nan nan nan nan nan nan nan nan nan nan nan nan nan nan nan
19 14 18 15 15 11 10 3 0 0 nan nan nan nan nan nan nan nan nan nan nan nan nan nan nan nan nan nan nan nan nan nan nan nan nan nan nan nan 0 0 0 nan nan nan nan nan nan nan nan nan nan nan nan nan nan nan nan nan nan nan nan nan nan nan nan nan nan nan nan nan nan nan nan nan nan nan nan nan nan nan nan nan nan nan nan nan
10 9 10 9 9 8 4 2 0 0 nan nan nan nan nan nan nan nan nan nan nan nan nan nan nan nan nan nan nan nan nan nan nan nan nan nan nan nan nan nan nan 1 nan nan nan nan nan nan nan nan nan nan nan nan nan nan nan nan nan nan nan nan nan nan nan nan nan nan nan nan nan nan nan nan nan nan nan nan nan nan nan nan nan nan nan nan
13 11 10 10 10 8 3 1 nan nan nan nan nan nan nan nan nan nan nan nan nan nan nan nan nan nan nan nan 0 0 0 nan nan nan nan nan nan nan nan nan nan nan nan nan nan nan nan nan nan nan nan nan nan nan nan nan nan nan nan nan nan nan nan nan nan nan nan nan nan nan nan nan nan nan nan nan nan nan nan nan nan nan nan nan nan nan
6 6 10 13 13 8 3 nan nan nan nan nan nan nan nan nan 7 7 nan nan nan nan nan nan nan nan nan nan 1 1 1 nan nan nan nan nan nan nan nan nan nan nan nan nan nan nan nan nan nan nan nan nan nan nan nan nan nan nan nan nan nan nan nan nan nan nan nan nan nan nan nan nan nan nan nan nan nan nan nan nan nan nan nan nan nan nan
3 4 12 11 11 7 2 0 nan nan nan nan nan nan nan nan nan nan nan nan nan nan nan nan nan nan nan nan 0 0 0 nan nan nan nan nan nan nan nan nan nan nan nan nan nan nan nan nan nan 1 2 nan nan nan nan nan nan nan nan nan nan nan nan nan nan nan nan nan nan nan nan nan nan nan nan nan nan nan nan nan nan nan nan nan nan nan
7 6 15 10 10 6 0 nan nan nan nan nan nan nan nan nan nan nan nan nan nan nan nan nan nan nan nan 0 0 0 0 nan nan nan nan nan nan nan nan nan nan nan nan nan nan nan nan nan nan nan 0 8 nan nan nan nan nan nan nan nan nan nan nan nan nan nan nan nan nan nan nan nan nan nan nan nan nan nan nan nan nan nan nan nan nan nan
CIN
nan nan nan nan nan nan nan nan nan nan nan nan nan nan nan -67 -63 -63 -90 -73 -73 -56 -56 -58 -58 -65 -90 -105 -77 -77 -56 -45 -40 -40 -43 -54 -62 -62 -69 -73 -73 -74 -78 -85 -85 -90 -93 -92 -92 -90 -90 -98 -97 -97 -96 -81 -81 -62 -1 -0 -0 -0 -0 -0 -0 -0 -1 -4 -4 -4 -4 -2 -0 -0 -1 -2 -6 -6 -4 -1 -1 -0 -0 -0 -0 -0
nan nan nan nan nan nan nan nan nan nan nan nan nan nan nan -31 -33 -33 -38 -44 -44 -43 -41 -41 -41 -50 -54 -67 -58 -58 -42 -32 -28 -28 -30 -37 -49 -49 -57 -66 -66 -68 -71 -75 -75 -76 -79 -78 -78 -76 -76 -75 -78 -78 -91 nan nan nan nan -1 -1 -0 -0 -0 -0 -0 -0 -3 -4 -4 -6 -3 -0 -0 -0 -3 -6 -6 -6 -2 -2 -0 -0 -0 -0 -0
nan nan nan nan nan nan nan nan nan nan -45 -27 -21 -21 -29 -28 -17 -17 -11 -20 -20 -33 -34 -38 -38 -46 -52 -49 -41 -41 -31 -23 -18 -18 -18 -27 -39 -39 -44 -50 -50 -51 -53 -56 -56 -58 -61 -62 -62 -62 -62 -61 -59 -59 -62 -74 -74 nan nan nan nan -1 -0 -0 -0 -0 -1 -3 -5 -5 -8 -6 -3 -3 -4 -3 -8 -8 -7 -3 -3 -0 -0 -0 -0 -0
nan nan nan nan nan nan nan nan nan nan nan nan -33 -33 nan -27 -14 -14 -9 -8 -8 -12 -18 -35 -35 -38 -39 -36 -31 -31 -25 -21 -17 -17 -14 -22 -29 -29 -32 -32 -32 -36 -35 -40 -40 -45 -49 -52 -52 -52 -51 -49 -50 -50 -48 -53 -53 nan nan nan nan nan -1 -0 -0 -1 -2 -4 -8 -8 -11 -11 -7 -7 -7 -10 -11 -11 -8 -3 -3 -0 -0 -0 -0 -0
nan nan nan nan nan nan nan nan nan nan nan nan nan nan nan -28 -13 -13 -15 -12 -12 -15 -21 -30 -30 -30 -26 -27 -26 -26 -22 -19 -18 -18 -15 -10 -6 -6 -13 -17 -17 -22 -29 -35 -35 -41 -46 -48 -48 -47 -44 -40 -40 -40 -38 -43 -43 nan nan nan nan nan nan nan nan nan -7 -8 -12 -12 -14 -14 -14 -14 -13 -14 -11 -11 -6 -2 -2 -0 -0 -0 -0 -0
nan nan nan nan nan nan nan nan nan nan nan nan nan nan nan -23 -18 -18 -20 -21 -21 -20 -19 -16 -16 -20 -19 -21 -25 -25 -21 -19 -18 -18 -16 -10 -6 -6 -5 -10 -10 -18 -30 -41 -41 -47 -54 -54 -54 -51 -42 -36 -33 -33 -34 -37 -37 nan nan nan nan nan nan -58 -58 nan nan nan nan nan -16 -16 -19 -19 -20 -14 -6 -6 -3 -1 -1 -0 -0 -0 -0 -0
nan nan nan nan nan nan nan nan nan nan nan nan nan nan -36 -34 -28 -28 -21 -18 -18 -16 -22 -15 -15 -18 -18 -23 -27 -27 -22 -19 -17 -17 -10 -7 -3 -3 -3 -8 -8 -19 -35 -48 -48 -61 -65 -65 -65 -59 -50 -37 -32 -32 -28 -26 -26 -31 nan nan nan nan nan -59 -59 -55 -43 nan nan nan nan -20 -22 -22 -23 -17 -6 -6 -2 -1 -1 -1 -1 -0 -0 -0
nan nan nan nan nan nan nan nan nan nan nan -31 -12 -12 nan nan nan nan nan nan nan -25 -17 -44 -44 -56 -31 -26 -27 -27 -33 nan nan nan nan -23 -21 -21 -18 -37 -37 -43 -50 -58 -58 -68 -71 -67 -67 -60 -53 -42 -27 -27 -18 nan nan nan nan nan nan nan nan nan nan -44 nan nan nan nan nan nan nan nan -28 -28 -24 -24 -12 -3 -3 -5 -19 -29 -29 -27
-7 -0 -0 nan nan -0 -0 -1 nan nan -37 -38 -26 -26 -18 -6 -10 -10 -18 -20 -20 -17 -39 -35 -35 -28 -34 -44 -51 -51 -44 -39 -35 -35 -29 -35 -40 -40 -30 -60 -60 -64 -63 -63 -63 -66 -70 -67 -67 -64 nan nan nan nan nan nan nan nan nan nan nan nan nan nan nan nan nan nan nan nan nan nan nan nan nan -35 -44 -44 -42 -35 -35 -30 -18 -16 -16 -22
-7 -2 -0 -0 -0 -0 -2 -0 -4 -4 -32 -35 -33 -33 -28 -18 -16 -16 -12 -12 -12 -21 -47 -34 -34 -29 nan nan nan nan -50 -38 -25 -25 -21 -23 -23 -23 -26 -52 -52 nan -60 -64 -64 -63 -66 -0 -0 nan nan nan -1 -1 nan nan nan nan nan nan nan nan nan nan nan nan nan -52 -52 -52 nan nan nan nan nan nan nan nan nan nan nan nan -0 -0 -0 -0
-2 -5 -0 -0 -0 -2 -10 -10 -15 -15 -42 -35 -37 -37 -35 -39 -29 -29 -14 -15 -15 nan nan nan nan nan nan nan nan nan nan nan nan nan -39 -33 -25 -25 -21 -16 -16 -28 -34 -43 -43 nan nan -0 -0 -0 -0 -0 nan nan nan nan nan nan nan nan nan -10 nan nan nan nan nan nan nan nan nan nan nan nan nan nan nan nan nan nan nan nan -0 -0 -0 -0
-1 -2 -4 -3 -3 -3 -8 -17 nan nan nan nan nan nan nan nan -63 -63 -37 nan nan nan nan nan nan nan nan nan -42 -42 -53 nan nan nan nan nan -56 -56 nan nan nan nan nan nan nan nan nan nan nan -0 -0 nan nan nan nan nan nan nan nan -6 -6 -5 -7 -8 -8 nan nan nan nan nan nan nan nan nan nan nan nan nan nan nan nan nan -0 -0 -0 -0
-6 -4 -5 -7 -7 -12 -10 -16 nan nan nan nan nan nan nan nan nan nan -49 -31 -31 nan nan -16 -16 -28 -41 -44 -38 -38 -42 -53 -67 -67 nan -66 nan nan nan nan nan nan nan nan nan nan nan nan nan nan nan nan nan nan nan nan nan nan nan -3 -3 -3 -4 -6 -6 nan nan nan nan nan nan nan nan nan nan nan nan nan nan nan nan nan nan -0 -0 -0
-7 -11 -9 -6 -6 -12 -17 -22 nan nan nan nan nan nan nan nan nan nan -31 -14 -14 nan -19 -20 -20 -23 -33 -45 -47 -47 -48 -47 -52 -52 -52 -65 nan nan nan nan nan nan nan nan nan nan nan nan nan nan nan nan nan nan nan nan nan nan nan -3 -3 -2 -3 -4 -4 -7 nan nan nan nan nan nan nan nan nan nan nan nan nan nan nan nan nan -0 -0 -0
-9 -10 -10 -11 -11 -6 -14 -16 -14 -14 nan nan nan nan -29 -32 -22 -22 -16 -13 -13 -16 -14 -13 -13 -24 -34 nan nan nan nan nan nan nan -50 nan nan nan nan nan nan nan nan nan nan nan nan nan nan nan nan nan nan nan nan nan nan nan nan -2 -2 -2 -2 -3 -3 -5 -7 -10 nan nan nan nan nan nan nan nan nan nan nan nan nan nan nan nan nan -0
-11 -8 -9 -9 -9 -10 -13 -13 -8 -8 -25 -32 -32 -32 -24 -17 -15 -15 -11 -7 -7 -13 -15 -19 -19 -22 nan nan nan nan nan nan nan nan nan nan nan nan nan nan nan nan nan nan nan nan nan nan nan nan nan nan nan nan nan nan nan nan nan -3 -3 -2 -2 -3 -3 -4 -6 -9 -12 -12 nan nan nan nan nan nan nan nan nan nan nan nan nan nan nan -1
-10 -9 -9 -9 -9 -11 -12 -12 -17 -17 -30 -36 -30 -30 -19 -11 -8 -8 -6 -5 -5 -10 -13 -15 -15 -12 -12 nan nan nan nan nan -99 -99 -58 nan nan nan nan nan nan nan nan nan nan nan nan nan nan nan nan nan nan nan nan nan nan nan nan nan nan -3 -3 -3 -3 -4 -5 -7 -10 -10 -16 nan nan nan nan nan nan nan nan nan nan nan nan nan nan nan
-12 -10 -8 -10 -10 -12 -13 -19 -31 -31 -39 -30 -20 -20 -21 -16 -11 -11 -7 -5 -5 -8 -10 -11 -11 -9 -7 -12 nan nan nan nan -82 -82 nan -9 nan nan nan nan nan nan nan nan nan nan nan nan nan nan nan nan nan nan nan nan nan nan nan nan nan -2 -2 -3 -3 -3 -4 -6 -9 -9 nan nan nan nan nan nan nan nan nan nan nan nan nan nan nan nan
-14 -13 -11 -9 -9 -11 -12 -27 -26 -26 -20 -15 -12 -12 -12 -13 -10 -10 -9 -9 -9 -8 -6 -6 -6 -9 -7 -8 -51 -51 nan nan -33 -33 -15 -12 nan nan nan nan nan nan nan nan nan nan nan nan nan nan nan nan nan nan nan nan nan nan nan nan nan -1 -1 -2 -2 -3 -4 -5 nan nan nan nan nan nan nan nan nan nan nan nan nan nan nan nan nan -0
-12 -12 -10 -8 -8 -9 -11 -13 -14 -14 -10 -10 -8 -8 -6 -6 -5 -5 -5 -8 -8 -7 -5 -3 -3 -7 -11 -12 -52 -52 nan nan -27 -27 -15 -16 -16 -16 nan nan nan nan nan nan nan nan nan nan nan nan nan nan nan nan nan nan nan nan nan -1 -1 -1 -1 -1 -1 -3 -4 -5 nan nan nan nan nan nan nan nan nan nan nan nan nan nan nan -0 -0 -0
-10 -8 -8 -8 -8 -5 -7 -11 -12 -12 -9 -8 -6 -6 -3 -3 -3 -3 -5 -3 -3 -3 -4 -3 -3 -7 -15 -12 -18 -18 nan -39 -15 -15 -13 -17 -20 -20 nan nan nan nan nan nan nan nan nan nan nan nan nan nan nan nan nan nan nan -0 -0 -0 -0 -0 -0 -1 -1 -3 -4 nan nan nan nan nan nan nan nan nan nan nan nan nan nan nan nan -0 -0 -0
-10 -5 -10 -11 -11 -6 -4 -12 -8 -8 -6 -1 -0 -0 -0 -1 -1 -1 -2 -2 -2 -3 -5 -5 -5 -10 -12 -10 -15 -15 -36 -25 -11 -11 -9 -11 -20 -20 nan nan nan nan nan nan nan nan nan nan nan nan nan nan nan nan nan -0 -0 -0 -0 -0 -0 -0 -0 -1 -1 -3 nan nan nan nan nan nan nan nan nan nan nan nan nan nan nan nan -0 -0 -0 -0
-11 -5 -7 -7 -7 -5 -5 -6 -3 -3 -0 -0 -0 -0 -0 -1 -2 -2 -5 -6 -6 -6 -5 -7 -7 -10 -8 -7 -17 -17 -26 -24 -11 -11 -6 -5 -10 -10 nan nan nan nan nan nan nan nan nan nan nan nan nan nan -0 -0 -0 -0 -0 -0 -0 -0 -0 -0 -0 -2 -2 nan nan nan nan nan nan nan nan nan nan nan nan nan nan nan nan nan -0 -0 -0 -0
-14 -7 -6 -5 -5 -4 -4 -1 -1 -1 -2 -5 -10 -10 -14 -11 -9 -9 -13 -10 -10 -7 -5 -5 -5 -5 -7 -8 -13 -13 -26 -27 -16 -16 -5 -3 -7 -7 nan nan nan nan nan nan nan nan nan nan nan nan nan -0 -0 -0 -0 -0 -0 -0 -0 -0 -0 -0 -1 nan nan nan nan nan nan nan nan nan nan nan nan nan nan nan nan nan nan -0 -0 -0 -0 -0
-15 -8 -7 -4 -4 -1 -1 -1 -3 -3 -9 -13 -15 -15 -18 -12 -8 -8 -9 -7 -7 -5 -4 -2 -2 -2 -10 -9 -9 -9 nan nan nan nan nan nan nan nan nan nan nan nan nan nan nan nan nan nan nan nan nan -0 -0 -0 -0 -0 -0 -0 -0 -0 -0 -0 nan nan nan nan nan nan nan nan nan nan nan nan nan -0 -0 -0 -0 -0 -0 -0 -0 -0 -0 -0
-5 -5 -5 -2 -2 -0 -0 -0 -0 -0 -0 -4 -8 -8 -7 -4 -4 -4 -4 -4 -4 -3 -2 -0 -0 -1 -3 -3 -3 -3 -26 nan nan nan nan -5 -13 -13 nan nan nan nan nan nan nan nan nan nan nan nan nan -0 -0 -0 -0 -0 -0 -0 -0 -0 -0 -1 nan nan nan nan nan nan nan nan -0 -0 -0 -0 -0 -0 -0 -0 -0 -0 -0 -0 -0 -0 -0 -0
-0 -0 -0 -0 -0 -0 -0 -0 -0 -0 -0 -0 -4 -4 -4 -1 -1 -1 -2 -2 -2 -1 -0 -0 -0 -2 -8 nan nan nan -14 nan nan nan -28 -8 -7 -7 nan nan nan nan nan nan nan nan nan nan nan nan nan nan -0 -0 -0 -0 -0 -0 -0 -0 -0 -7 nan nan nan nan nan -0 -0 -0 -0 -0 -0 -0 -0 -0 -0 -0 -0 -0 -0 -0 -0 -0 -0 -0
-0 -0 -0 -0 -0 -0 -0 -0 -0 -0 -0 -0 -0 -0 -0 -1 -0 -0 -0 -1 -1 -1 nan nan nan nan nan nan nan nan nan nan nan nan nan -14 -5 -5 nan nan nan nan nan nan nan nan -0 -0 -0 nan nan nan -0 -0 -0 -0 -0 -0 -0 -5 -5 -17 nan nan nan -0 -0 -0 -0 -0 -0 -0 -0 -0 -0 -0 -0 -0 -0 -0 -0 -0 -0 -0 -0 -1
-0 -0 -0 -0 -0 -0 -0 -0 -0 -0 -0 -0 -0 -0 -0 -1 -0 -0 -1 -2 -2 -2 -2 -2 -2 -2 -4 -4 nan nan nan nan nan nan nan -12 -3 -3 nan nan nan nan nan nan nan nan nan nan nan nan nan -0 -0 -0 -0 -0 -0 -5 -4 -12 -12 nan -0 -0 -0 -0 -0 -0 -0 -0 -0 -0 -0 -0 -0 -0 -0 -0 -0 -0 -0 -0 -0 -0 -0 nan
-3 -0 -0 -0 -0 -0 -0 -0 -0 -0 -0 -0 -0 -0 -0 -1 -0 -0 -1 -2 -2 -1 -1 -1 -1 -2 -5 -6 -9 -9 nan nan nan nan nan nan nan nan nan nan nan nan nan nan nan nan nan nan nan nan -0 -0 -0 -0 -0 -0 -0 nan nan -0 -0 -0 -0 -0 -0 -0 -0 -0 -0 -0 -0 -0 -0 -0 -0 -0 -0 -0 -0 -0 -0 -0 -1 nan nan nan
-22 -10 -9 -5 -5 -7 -13 -23 -8 -8 -0 -0 -0 -0 -0 -3 -1 -1 -0 -0 -0 -0 -1 -1 -1 -3 -4 -4 -3 -3 nan nan nan nan nan -0 nan nan nan nan nan nan nan nan nan nan nan nan nan nan -0 -0 -0 -0 -0 -0 -0 nan nan nan nan -0 -0 -0 -0 -0 -0 -0 -0 -0 -0 -0 -0 -0 -0 -0 -0 -0 -0 -0 -0 -0 nan nan nan nan
-10 -6 -8 -9 -9 -16 -24 -26 -27 -27 -20 -13 -9 -9 -2 -1 -1 -1 -6 -15 -15 nan -4 -2 -2 -2 -2 -1 -1 -1 -1 nan nan nan -18 -4 -4 -4 -10 nan nan nan nan nan nan nan nan nan nan nan nan nan nan nan nan -0 -0 nan nan nan nan nan -2 -0 -0 -1 -0 -0 -0 -0 -0 -0 -0 -0 -0 -0 -0 -0 -0 -0 -0 -0 nan nan nan nan
-6 -3 -8 -10 -10 -20 nan -27 -23 -23 -17 -13 -9 -9 -8 -3 -1 -1 -6 nan nan nan -4 -1 -1 -1 -1 -2 -3 -3 -5 -17 -13 -13 -6 -2 -2 -2 -12 -22 -22 nan nan nan nan nan nan nan nan nan nan nan nan nan nan -0 -0 -0 nan nan nan nan nan -5 -5 -7 -2 -1 -0 -0 -0 -0 -0 -0 -0 -0 -0 -0 -0 -0 -0 -0 nan nan nan nan
-7 -3 -6 -15 -15 -24 -30 -30 -23 -23 -15 -11 -7 -7 -7 -7 -8 -8 -7 nan nan nan nan nan nan -1 -1 -1 -2 -2 -5 -11 -4 -4 -3 -0 -1 -1 -4 -9 -9 -21 nan nan nan nan nan nan nan nan nan nan nan nan nan nan nan -0 nan nan nan nan nan nan nan nan nan nan nan nan -3 -1 -0 -0 -0 -0 -0 -0 -0 -0 -0 -0 -0 nan nan nan
-5 -3 -6 -21 -21 nan -27 -26 -21 -21 -15 -13 -13 -13 -12 -15 nan nan nan nan nan nan nan nan nan nan -1 -1 -1 -1 -3 nan -7 -7 -1 -0 -0 -0 -0 -2 -2 -9 nan nan nan nan nan nan nan nan nan nan nan nan nan nan nan nan nan nan nan nan nan nan nan nan nan nan nan nan nan nan -1 -1 -0 -0 -0 -0 -0 -0 -0 -0 -0 -0 -0 nan
-3 -3 -11 -22 -22 -23 -24 -20 -19 -19 -15 -18 -21 -21 -20 nan nan nan nan nan nan nan nan nan nan nan -2 -1 -0 -0 -1 -7 -4 -4 -0 -0 -0 -0 -0 -1 -1 -4 -7 nan nan nan nan nan nan nan nan nan nan nan nan nan nan nan nan nan nan nan nan nan nan nan nan nan nan nan nan nan nan nan -1 -0 -0 -0 -0 -0 -0 -0 -0 -0 -0 -0
-2 -2 -11 -23 -23 -23 -15 -19 -19 -19 -16 -18 -22 -22 -15 -14 nan nan nan nan nan nan nan nan nan -2 -0 -1 -1 -1 -3 nan nan nan -0 -0 -0 -0 -0 -1 -1 -2 -4 nan nan nan nan nan nan nan nan nan nan nan nan nan nan nan nan nan nan nan nan nan nan nan nan nan nan nan nan nan nan nan -0 -0 -0 -0 -0 -0 -0 -0 -0 -0 -0 -0
-1 -3 -10 -20 -20 -19 -18 -19 -17 -17 -15 -13 -12 -12 -13 -12 nan nan nan nan nan nan nan nan nan nan -0 -0 -1 -1 nan nan nan nan -0 -0 -0 -0 -0 -0 -0 -1 -5 nan nan nan nan nan nan nan nan nan nan nan nan nan nan nan nan nan nan nan nan nan nan nan nan nan nan nan nan nan nan nan nan -1 -1 -1 -1 -0 -0 -0 -0 -0 -0 -0
-3 -7 -12 -13 -13 -16 -16 -16 -16 -16 -16 -16 -14 -14 -13 -11 -10 -10 nan nan nan nan nan nan nan nan nan nan -0 -0 -0 -1 -1 -1 -1 -0 -0 -0 -0 -0 -0 -2 nan nan nan nan nan nan nan nan nan nan nan nan nan nan nan nan nan nan nan nan nan nan nan nan nan nan nan nan nan nan nan nan nan nan nan nan nan nan nan -0 -2 -4 -4 -0
-2 -6 -9 -9 -9 -16 -17 -14 -17 -17 -20 -14 -11 -11 -11 -10 nan nan nan nan nan nan nan nan nan nan nan -0 -0 -0 -1 nan -0 -0 nan nan -0 -0 -0 -0 -0 nan nan nan nan nan nan nan nan nan nan nan nan nan nan nan nan nan nan nan nan nan nan nan nan nan nan nan nan nan nan nan nan nan nan nan nan nan nan nan nan nan nan nan nan nan
-1 -6 -8 -12 -12 -14 -14 -18 nan nan -21 -15 -14 -14 nan nan nan nan nan nan nan nan nan nan nan nan nan nan nan nan nan nan -0 -0 nan nan -0 -0 -0 nan nan nan nan nan nan nan nan nan nan nan nan nan nan nan nan nan nan nan nan nan nan nan nan nan nan nan nan nan nan nan nan nan nan nan nan nan nan nan nan nan nan nan nan nan nan nan
-0 -3 -7 -10 -10 -12 -18 -27 -22 -22 -17 nan nan nan nan nan nan nan nan nan nan nan nan nan nan nan nan nan nan nan nan nan nan nan -0 nan nan nan -0 nan nan nan nan nan nan nan nan nan nan nan nan nan nan nan nan nan nan nan nan nan nan nan nan nan nan nan nan nan nan nan nan nan nan nan nan nan nan nan nan nan nan nan nan nan nan nan
-1 -3 -7 -9 -9 -12 -15 -15 -13 -13 -15 nan nan nan nan nan nan nan nan nan nan nan nan nan nan nan nan nan nan nan nan nan nan nan -0 nan nan nan -0 -0 -0 nan nan nan nan nan nan nan nan nan nan nan nan nan nan nan nan nan nan nan nan nan nan nan nan nan nan nan nan nan nan nan nan nan nan nan nan nan nan nan nan nan nan nan nan nan
-1 -4 -8 -10 -10 -15 -16 -13 -17 -17 -14 nan nan nan nan nan nan nan nan nan nan nan nan nan nan nan nan nan nan nan nan nan nan nan nan -0 -0 -0 nan nan nan nan nan nan nan nan nan nan nan nan nan nan nan nan nan nan nan nan nan nan nan nan nan nan nan nan nan nan nan nan nan nan nan nan nan nan nan nan nan nan nan nan nan nan nan nan
-4 -5 -6 -8 -8 -9 -12 -17 -16 -16 nan nan nan nan nan nan nan nan nan nan nan nan nan nan nan nan nan nan nan nan nan nan nan nan nan -0 -0 -0 -0 nan nan nan nan nan nan nan nan nan nan nan nan nan nan nan nan nan nan nan nan nan nan nan nan nan nan nan nan nan nan nan nan nan nan nan nan nan nan nan nan nan nan nan nan nan nan nan
-4 -6 -5 -7 -7 -9 -7 -13 -15 -15 nan nan nan nan nan nan nan nan nan nan nan nan nan nan nan nan nan nan nan nan nan nan nan nan nan nan nan nan -0 -0 -0 nan nan nan nan nan nan nan nan nan nan nan nan nan nan nan nan nan nan nan nan nan nan nan nan nan nan nan nan nan nan nan nan nan nan nan nan nan nan nan nan nan nan nan nan nan
-7 -7 -6 -8 -8 -9 -13 -15 -15 -15 nan nan nan nan nan nan nan nan nan nan nan nan nan nan nan nan nan nan nan nan nan nan nan nan nan nan nan nan nan nan nan -0 nan nan nan nan nan nan nan nan nan nan nan nan nan nan nan nan nan nan nan nan nan nan nan nan nan nan nan nan nan nan nan nan nan nan nan nan nan nan nan nan nan nan nan nan
-3 -4 -5 -6 -6 -8 -15 -16 nan nan nan nan nan nan nan nan nan nan nan nan nan nan nan nan nan nan nan nan -1 -1 -0 nan nan nan nan nan nan nan nan nan nan nan nan nan nan nan nan nan nan nan nan nan nan nan nan nan nan nan nan nan nan nan nan nan nan nan nan nan nan nan nan nan nan nan nan nan nan nan nan nan nan nan nan nan nan nan
-5 -5 -4 -6 -6 -10 -16 nan nan nan nan nan nan nan nan nan -0 -0 nan nan nan nan nan nan nan nan nan nan -0 -0 -0 nan nan nan nan nan nan nan nan nan nan nan nan nan nan nan nan nan nan nan nan nan nan nan nan nan nan nan nan nan nan nan nan nan nan nan nan nan nan nan nan nan nan nan nan nan nan nan nan nan nan nan nan nan nan nan
-6 -5 -3 -6 -6 -12 -16 -15 nan nan nan nan nan nan nan nan nan nan nan nan nan nan nan nan nan nan nan nan -0 -0 -0 nan nan nan nan nan nan nan nan nan nan nan nan nan nan nan nan nan nan -0 -0 nan nan nan nan nan nan nan nan nan nan nan nan nan nan nan nan nan nan nan nan nan nan nan nan nan nan nan nan nan nan nan nan nan nan nan
-2 -4 -3 -7 -7 -12 -17 nan nan nan nan nan nan nan nan nan nan nan nan nan nan nan nan nan nan nan nan -0 -0 -0 -0 nan nan nan nan nan nan nan nan nan nan nan nan nan nan nan nan nan nan nan -0 -0 nan nan nan nan nan nan nan nan nan nan nan nan nan nan nan nan nan nan nan nan nan nan nan nan nan nan nan nan nan nan nan nan nan nan
Wind_Speed
11 11 12 13 13 12 12 13 14 14 13 12 12 11 11 11 11 11 12 12 11 11 10 10 11 12 13 13 14 16 17 19 20 21 22 22 21 20 19 20 21 22 23 23 23 23 22 22 22 22 22 22 22 22 22 23 24 25 25 26 26 26 25 26 27 27 26 25 24 24 25 27 28 29 29 29 29 29 28 28 28 28 27 27 27 28
12 12 12 13 14 13 12 13 13 13 13 13 13 13 13 14 13 12 12 12 12 11 10 10 10 11 12 12 13 15 17 19 20 22 22 21 21 20 20 21 22 23 24 23 23 22 22 22 21 21 21 21 21 21 21 21 21 22 23 24 24 25 25 26 26 26 26 26 25 25 25 26 27 28 29 28 28 27 27 27 26 26 26 26 27 28
12 12 12 13 13 14 13 13 13 13 14 14 14 14 16 16 15 13 12 12 12 12 11 10 10 10 11 11 13 15 17 19 21 22 23 22 22 21 21 22 23 24 24 23 23 22 21 21 21 21 21 21 21 21 20 20 20 20 21 21 23 24 25 25 25 25 26 25 25 25 24 25 26 28 28 28 27 26 26 26 25 25 25 26 27 28
12 12 12 11 12 13 14 14 14 14 14 14 15 16 17 16 14 13 12 12 12 11 11 12 11 11 10 10 12 14 17 19 21 22 24 23 23 22 22 22 23 23 23 23 22 22 21 21 21 21 21 21 21 21 21 20 20 20 20 20 21 23 24 24 24 24 25 25 24 23 23 24 25 27 27 26 26 25 25 25 24 24 24 26 27 28
11 12 11 11 11 13 14 14 14 14 13 13 14 15 15 13 12 12 12 12 11 11 10 10 11 11 10 10 11 14 17 19 21 22 23 22 22 21 21 22 22 23 23 23 23 22 22 21 21 20 20 21 21 21 21 21 20 20 20 20 21 22 22 23 23 24 25 24 23 22 22 22 24 25 26 25 25 25 25 24 24 23 23 25 27 28
11 11 11 10 10 10 11 11 11 11 11 11 12 12 12 12 11 11 11 11 11 11 10 10 11 11 11 11 12 15 18 19 20 20 20 20 20 20 21 22 23 23 24 24 24 23 23 22 21 20 20 20 21 21 21 21 20 20 20 20 21 21 22 22 23 23 24 24 24 23 23 22 23 24 25 25 24 24 25 24 23 23 23 25 26 27
11 10 10 9 9 9 9 10 10 10 10 10 10 11 11 11 11 11 12 12 12 12 11 11 11 12 12 12 13 14 15 16 17 18 18 17 18 19 21 22 23 24 25 25 25 24 23 22 20 20 19 20 20 20 20 20 20 19 20 20 21 21 22 22 23 23 24 24 24 24 24 23 23 23 24 25 25 25 25 24 24 23 23 24 25 27
11 11 10 10 9 9 9 9 9 9 9 9 10 10 10 10 10 11 13 13 13 12 11 10 10 9 10 10 11 11 11 12 13 13 13 13 15 17 19 22 24 25 25 25 25 24 23 21 20 19 19 19 20 20 20 19 18 18 19 19 20 21 22 22 23 23 24 24 24 24 24 24 23 23 24 25 25 25 25 24 24 23 23 23 24 26
12 12 11 11 11 11 10 9 9 9 9 8 8 9 10 11 11 11 11 11 11 10 8 8 8 8 8 7 8 8 8 8 8 8 8 8 10 12 15 19 21 23 23 23 23 23 22 20 20 19 19 19 20 19 19 18 18 17 18 18 19 20 21 22 23 23 23 24 25 25 25 25 24 24 24 25 25 25 24 24 23 23 23 24 25 27
11 12 12 11 10 10 10 10 10 9 9 8 8 8 8 10 11 11 11 10 9 8 6 7 8 9 8 8 7 7 8 10 11 11 11 12 12 14 16 17 17 17 19 20 21 21 20 20 19 19 19 19 19 19 19 19 18 18 18 18 19 20 21 22 23 23 24 25 25 26 26 25 25 25 25 25 25 25 24 23 23 23 24 25 27 30
10 10 10 10 10 9 9 9 9 9 9 9 9 9 8 9 9 10 11 11 11 9 8 8 9 9 9 9 9 9 9 10 11 12 13 15 17 18 19 18 17 17 18 19 19 19 19 19 19 19 19 19 19 19 19 18 18 18 19 19 20 20 21 23 24 24 25 25 26 26 26 26 26 26 26 26 26 25 25 24 24 24 25 27 30 34
8 8 8 8 9 8 8 9 8 8 8 9 9 9 9 8 7 8 11 12 12 12 11 10 9 8 8 8 8 8 8 8 8 8 8 9 11 12 13 12 12 13 14 15 15 16 16 17 17 17 16 16 17 17 17 17 18 19 20 20 21 21 22 23 24 25 25 26 26 26 27 27 26 26 26 26 26 26 25 25 25 25 26 30 34 36
8 8 8 8 8 9 9 9 8 8 8 8 9 10 10 8 7 7 8 11 12 12 12 11 9 7 6 5 5 5 6 6 7 6 5 4 5 5 4 4 5 5 6 7 7 8 10 11 12 13 13 14 14 15 16 17 18 19 20 21 21 21 22 23 23 24 24 25 26 26 26 26 27 27 27 27 27 26 25 25 25 26 28 33 36 37
9 8 9 9 9 9 8 8 9 9 8 8 9 10 10 9 8 8 9 10 11 11 11 11 10 7 5 4 4 3 4 5 5 5 4 3 3 2 2 3 4 4 4 4 4 4 6 6 7 8 10 11 12 13 14 15 17 19 20 21 21 21 22 22 22 23 23 24 25 26 26 26 27 27 28 27 26 26 25 24 24 26 31 34 35 35
9 10 10 10 10 9 8 8 9 9 9 9 9 9 9 9 9 9 9 10 10 10 10 10 10 9 6 5 4 4 5 4 4 5 6 4 3 3 3 3 4 4 4 3 4 4 5 5 5 5 7 9 11 12 13 14 15 17 19 20 20 21 22 22 22 22 23 24 25 26 26 27 27 27 27 26 25 25 25 25 25 28 31 32 31 30
9 10 11 11 10 10 9 8 9 9 10 9 9 9 9 9 8 8 9 10 9 9 8 9 9 9 8 6 4 4 4 4 4 4 6 4 2 1 1 3 4 4 3 4 4 4 4 4 5 6 7 10 12 15 15 15 16 17 18 19 20 21 22 22 23 23 24 25 26 26 27 27 27 26 25 24 24 24 25 27 29 30 30 29 27 26
9 9 10 10 10 10 9 9 9 9 9 8 8 8 8 8 7 7 8 8 8 7 6 7 8 8 7 6 4 3 2 2 1 2 4 4 2 1 1 2 3 4 5 5 5 5 4 4 5 6 7 11 14 17 18 17 18 18 18 19 20 20 21 22 23 24 24 25 26 27 27 27 26 25 23 23 23 25 27 29 31 31 29 27 26 25
9 9 9 10 10 10 10 10 9 9 8 8 8 8 8 8 8 8 8 7 7 7 6 6 6 6 6 6 4 1 2 1 3 5 7 7 5 2 1 1 3 5 6 7 7 6 5 5 5 6 8 12 16 18 19 19 19 19 19 20 20 21 21 22 23 24 25 25 26 26 26 26 24 23 22 23 25 27 29 30 30 30 29 28 27 26
9 9 9 10 10 10 10 9 8 8 8 7 7 8 9 9 9 9 9 8 7 8 8 8 7 6 7 8 6 3 2 3 5 7 10 12 11 8 4 4 5 6 8 8 8 7 5 5 7 9 12 16 18 20 21 20 20 21 21 21 21 21 21 22 22 23 24 25 25 25 24 23 22 22 24 26 27 28 29 28 28 28 28 28 28 28
10 10 10 11 11 11 10 9 8 8 8 8 8 8 9 9 9 8 8 7 7 7 7 8 9 8 7 9 9 8 6 6 6 7 9 12 12 11 7 6 6 7 9 8 7 6 5 5 6 8 12 16 18 20 21 21 21 22 22 22 22 22 22 22 23 23 23 23 23 22 22 21 22 23 26 27 27 28 28 27 27 27 27 27 27 27
11 12 11 11 10 9 8 7 8 10 11 11 10 10 9 9 9 8 7 7 7 9 9 9 9 9 7 9 11 11 9 7 7 7 6 8 9 8 5 5 6 7 8 7 6 5 4 4 4 5 8 12 16 18 20 21 21 22 23 23 23 23 23 23 23 22 22 21 20 19 19 20 22 24 25 26 26 26 26 26 25 25 25 25 25 25
11 12 12 13 12 10 9 9 10 11 12 11 10 9 8 8 8 8 8 8 10 11 11 11 11 11 10 12 13 13 11 8 7 7 6 8 10 9 5 4 4 5 6 5 4 3 3 3 3 4 7 11 15 18 20 21 22 22 23 24 24 24 24 23 22 20 18 17 15 15 17 19 22 23 24 24 24 24 25 25 25 24 24 24 24 23
12 13 13 12 12 11 10 10 10 10 10 9 8 7 7 7 9 10 11 11 11 12 12 12 13 12 12 13 13 13 12 9 8 7 6 9 10 9 4 3 3 4 5 4 3 2 1 2 2 3 6 11 15 18 20 21 22 23 23 24 24 23 22 20 18 15 12 11 12 15 18 20 21 22 23 23 24 24 25 25 25 25 25 24 24 23
12 13 12 11 10 10 9 9 9 9 9 8 9 9 9 9 10 10 10 10 11 11 11 12 12 12 11 12 12 11 10 8 6 5 5 6 6 5 3 2 2 4 5 4 3 1 0 1 2 2 4 9 14 17 20 21 22 23 23 23 22 20 18 14 11 9 10 14 17 19 20 21 22 23 23 24 24 25 25 25 25 25 24 24 24 23
12 11 11 11 12 13 13 13 13 13 12 12 11 10 10 11 11 11 10 10 10 10 10 11 11 10 8 8 8 7 5 3 2 2 2 2 3 3 2 2 2 4 5 4 1 1 0 1 1 2 2 6 11 16 19 21 22 23 23 21 18 15 11 10 12 16 18 20 22 22 22 23 23 24 24 25 25 25 25 25 24 24 24 23 23 22
17 17 18 19 21 23 24 24 23 23 22 18 14 12 10 10 10 10 9 9 8 8 9 9 9 8 7 6 6 6 4 2 1 1 1 2 3 4 4 3 3 4 5 2 1 2 0 1 2 1 1 4 8 12 17 20 21 21 20 16 12 11 13 17 21 23 23 23 24 24 24 24 24 25 25 25 25 25 25 24 24 24 23 22 21 20
26 26 28 28 28 27 26 26 26 27 27 25 21 17 14 11 10 10 9 8 7 7 8 8 9 9 8 8 8 7 5 4 2 2 1 2 4 6 6 2 2 3 4 2 1 1 1 1 1 1 1 3 5 9 14 16 16 15 13 11 12 17 21 23 24 25 24 24 24 24 24 25 25 25 25 25 25 25 25 24 24 23 22 19 17 16
25 26 27 27 26 25 25 24 24 24 25 26 26 24 18 12 10 9 9 8 7 8 9 9 9 9 8 8 8 7 6 4 3 2 2 3 5 6 4 1 2 3 3 1 1 1 1 1 1 1 1 2 4 7 10 9 7 6 9 13 18 21 23 24 24 24 24 24 24 24 24 24 25 25 25 25 25 24 24 24 24 22 20 15 11 10
22 23 24 24 23 23 22 21 21 21 23 24 25 23 17 11 9 9 9 8 8 8 9 9 9 8 8 9 9 8 7 5 3 2 2 3 4 4 0 1 2 2 2 1 0 0 0 1 1 0 1 2 4 5 7 6 3 5 9 15 19 21 22 22 22 22 22 23 23 23 24 24 24 24 24 24 24 24 25 24 22 18 14 10 8 7
16 17 18 18 18 17 16 15 15 17 20 22 22 20 15 10 8 8 8 8 7 7 8 8 8 8 8 8 9 8 6 4 2 1 1 2 2 1 1 1 2 2 3 1 0 0 1 1 0 1 1 2 3 4 5 6 5 5 6 10 13 16 18 19 20 20 20 21 22 22 23 23 23 24 24 24 24 25 25 24 19 14 9 7 7 6
14 14 13 12 12 11 10 9 10 12 14 16 17 15 11 9 8 8 7 6 5 5 7 8 8 9 8 7 7 6 5 3 1 0 1 1 2 2 1 1 1 2 3 3 1 1 1 1 1 1 2 2 3 4 4 5 5 4 4 4 6 9 14 16 17 17 18 19 20 21 21 22 22 23 23 24 24 24 24 22 17 12 8 7 7 7
14 13 12 11 10 8 7 7 7 8 9 10 10 9 9 8 8 7 6 5 4 5 6 8 9 9 8 7 7 6 5 4 2 2 2 2 3 4 3 2 2 1 3 3 2 1 1 0 1 1 2 2 3 3 4 4 4 4 4 3 4 6 11 13 14 14 15 16 18 19 20 21 22 22 23 23 24 24 23 21 16 11 8 7 7 7
14 13 11 10 9 8 7 6 6 7 7 7 7 7 7 7 7 7 6 5 4 5 6 7 8 9 8 8 8 8 7 5 5 5 5 4 3 3 3 2 2 1 2 2 1 1 0 0 1 1 1 2 2 3 4 4 5 4 4 4 3 4 8 9 9 9 10 12 14 16 18 20 21 22 22 22 23 23 22 20 16 13 9 8 7 7
14 14 12 10 9 8 7 7 7 7 6 6 7 7 6 6 6 6 6 5 5 5 5 6 7 8 8 8 8 8 8 7 6 6 6 5 4 3 3 3 2 1 1 1 2 1 1 0 1 1 1 2 2 3 3 4 5 5 4 4 4 4 4 5 6 6 7 8 9 10 13 14 17 19 20 21 21 21 21 20 18 15 12 9 8 7
13 13 11 9 8 7 7 7 7 7 6 6 7 7 6 6 6 6 6 6 5 5 5 6 7 7 8 8 8 9 8 7 6 7 7 6 5 4 5 5 4 3 1 1 2 2 1 1 1 1 2 2 2 2 3 3 3 4 4 4 4 4 4 4 5 5 6 6 6 6 7 8 10 12 13 16 18 19 20 20 19 17 15 13 10 7
12 12 10 9 8 8 8 8 8 8 7 6 6 5 5 6 6 6 6 6 6 6 7 7 7 7 7 8 9 9 9 7 7 8 8 7 6 6 6 6 5 4 4 3 3 3 2 2 2 2 3 2 2 2 2 2 3 3 4 5 5 4 4 4 5 5 5 5 5 5 5 6 6 7 9 13 17 19 20 20 20 19 18 16 13 10
11 10 9 9 8 8 8 8 8 8 7 7 6 5 6 6 7 7 7 7 7 7 8 8 8 9 9 9 9 8 8 7 7 8 9 8 7 7 7 7 7 7 6 5 4 3 3 3 3 3 2 2 2 2 1 1 2 4 4 4 4 4 5 5 5 5 5 5 5 5 5 5 5 6 8 14 17 18 19 20 20 20 19 18 17 14
10 9 9 9 8 8 8 8 8 8 8 8 8 8 8 8 8 8 8 8 8 8 8 8 8 9 12 12 10 9 7 7 8 10 11 9 8 8 8 8 8 8 6 5 4 4 4 4 4 4 3 2 2 3 3 3 3 3 3 4 4 4 4 4 4 5 5 5 6 6 6 5 5 5 7 9 11 11 11 13 15 17 18 18 17 17
10 9 9 9 9 8 8 8 9 9 9 9 9 9 9 9 9 9 8 7 7 8 8 8 8 8 9 10 9 8 8 8 9 10 10 10 8 8 8 8 8 7 5 4 4 4 4 4 4 4 4 3 3 3 2 3 4 4 4 4 4 4 4 4 4 4 5 5 6 6 5 5 4 4 4 5 6 6 6 8 9 11 12 11 12 14
10 9 9 10 10 9 9 9 9 9 9 10 10 10 9 8 8 7 7 7 7 7 8 8 8 7 7 6 6 6 6 6 7 8 8 8 8 7 7 6 5 4 3 2 3 3 4 3 4 4 5 4 4 4 3 3 4 5 6 4 3 3 3 3 3 4 4 5 5 5 4 4 4 4 4 4 4 5 5 5 5 7 8 7 7 8
10 10 10 10 10 10 10 10 9 8 8 8 8 8 7 7 6 6 6 6 6 6 6 6 6 5 4 4 4 4 4 5 6 7 7 8 8 7 5 4 3 2 2 2 2 3 3 3 3 4 4 5 5 5 5 5 5 6 6 5 4 3 3 4 4 4 4 5 5 5 5 5 5 5 5 5 4 4 4 4 5 5 5 4 4 5
12 11 11 10 10 10 9 9 8 8 8 8 8 7 7 6 6 6 6 6 6 5 4 3 3 3 3 3 3 3 3 3 5 6 7 7 8 7 5 3 1 1 2 3 3 3 3 4 4 4 5 5 5 5 4 4 5 5 5 5 5 5 5 4 4 3 4 5 5 5 6 6 5 5 5 5 4 4 4 5 5 6 5 3 3 3
11 10 10 10 10 9 9 9 8 8 7 7 7 7 6 5 5 6 7 7 7 7 6 4 3 3 2 2 2 2 2 2 3 5 6 6 7 7 6 5 4 2 1 3 3 3 3 3 3 3 4 5 6 6 6 5 4 4 4 6 6 6 4 2 2 2 4 4 5 5 5 5 5 5 5 5 4 4 4 5 6 7 5 4 4 3
10 10 10 10 9 8 8 8 7 7 7 8 8 7 6 6 6 6 6 6 7 7 6 4 3 2 2 2 2 1 1 1 2 3 5 7 8 7 6 6 6 5 4 3 3 3 3 4 3 2 2 4 5 6 6 6 5 4 4 4 4 5 4 3 2 2 4 4 4 4 5 5 5 5 5 4 4 4 4 4 4 4 4 4 4 4
10 10 10 10 9 9 9 8 8 8 8 8 8 8 7 6 6 6 5 6 6 6 5 4 3 2 2 1 1 1 1 1 2 2 3 7 9 9 8 7 6 6 6 5 4 3 3 3 3 3 3 3 4 5 5 6 6 5 5 5 6 6 5 4 4 4 5 4 4 4 4 4 4 5 5 4 4 4 4 4 4 4 4 4 4 5
10 10 11 10 10 9 10 9 9 8 8 8 8 8 7 6 5 5 6 6 6 5 4 3 2 1 1 1 1 0 1 1 2 2 3 4 6 7 7 7 7 6 6 6 6 6 5 4 3 3 4 5 5 5 5 5 6 6 6 6 6 6 5 4 4 4 5 5 4 3 3 3 4 5 5 4 4 4 4 4 4 4 4 4 4 4
11 12 12 11 10 9 8 8 8 8 8 8 8 8 6 5 5 5 5 5 5 4 3 2 1 1 1 1 0 0 1 1 2 2 3 4 4 5 5 6 6 7 7 7 7 7 7 6 5 4 4 5 5 4 4 5 5 6 6 6 6 6 5 4 3 3 4 4 4 3 2 3 4 4 4 4 3 3 3 3 3 3 3 3 4 4
12 13 12 11 10 9 8 8 8 8 9 8 8 8 7 6 6 6 5 4 4 3 3 2 1 1 0 0 1 1 2 2 2 2 3 3 3 4 4 4 5 5 6 7 8 9 9 9 8 7 5 4 4 4 4 4 5 5 5 5 6 6 5 4 3 3 3 4 3 3 2 3 4 4 4 4 3 3 3 3 3 3 3 3 3 4
12 12 12 11 10 9 8 8 9 9 9 9 8 8 6 6 7 7 5 4 3 3 2 1 1 0 0 1 1 2 2 2 2 2 2 2 3 3 3 3 3 3 4 5 6 7 8 9 10 10 8 6 5 5 5 5 5 5 4 5 5 5 5 4 3 3 3 3 3 3 3 3 3 4 4 5 4 3 3 2 3 3 3 3 2 3
12 12 12 10 9 9 9 9 9 9 9 9 8 8 7 6 5 5 4 3 3 2 1 1 0 0 1 1 2 2 3 2 2 2 2 2 2 2 3 3 3 2 2 3 3 4 4 6 8 11 12 11 8 6 5 5 5 5 5 4 4 5 5 4 4 3 3 3 3 3 4 3 3 3 4 5 4 4 3 2 1 2 2 2 2 2
12 12 11 10 9 9 8 9 9 9 8 8 8 8 7 6 5 4 3 2 2 2 1 1 0 1 2 2 3 3 3 2 2 2 3 2 2 3 3 3 3 2 2 2 3 3 3 3 4 6 10 12 11 8 4 4 5 5 5 4 3 3 4 4 4 4 4 4 3 3 4 4 3 3 3 4 4 4 3 2 1 0 1 1 1 2
Wind_Direction
302 304 305 306 306 304 301 302 301 301 300 302 302 303 305 305 304 302 299 296 293 290 286 283 282 281 280 279 280 281 283 284 284 283 282 281 280 280 279 279 277 275 272 268 266 263 262 261 261 261 260 259 256 252 246 240 237 235 237 241 245 248 249 248 246 244 241 237 231 225 220 220 219 218 216 213 210 207 204 205 206 206 205 205 207 210
301 303 303 304 304 302 300 303 304 304 305 306 307 308 310 309 308 307 305 301 298 294 291 288 286 284 283 284 284 284 285 287 287 286 285 284 282 281 280 278 277 275 273 271 268 266 265 264 264 264 264 263 260 255 249 241 235 232 231 235 240 244 246 245 244 243 241 238 234 228 222 218 218 218 219 215 211 206 202 204 204 205 205 207 208 209
305 303 303 305 305 304 304 307 309 309 309 310 311 311 311 309 307 305 303 300 297 294 291 289 288 286 284 286 286 285 285 287 287 286 285 283 282 281 279 278 277 275 274 273 271 269 267 266 266 266 266 265 263 259 253 244 237 233 231 233 236 240 242 242 241 241 240 239 236 232 225 219 217 217 218 215 211 205 200 200 201 201 203 206 207 206
304 303 304 306 305 304 304 307 309 310 311 310 310 309 308 306 304 302 300 299 298 297 294 293 292 291 288 286 284 283 281 281 281 281 281 281 280 280 280 279 278 277 276 275 273 271 269 268 267 267 267 267 265 262 257 249 242 237 234 234 235 237 238 238 238 238 239 240 238 235 230 222 217 214 213 211 207 203 197 197 198 200 203 207 207 205
302 301 304 305 303 302 304 306 307 308 308 307 307 306 305 304 303 302 302 302 301 300 299 298 295 292 289 287 284 280 277 275 275 275 277 279 280 281 281 281 280 279 278 276 274 273 271 270 268 268 267 267 267 265 261 255 249 243 239 237 236 235 234 234 235 236 238 239 239 238 235 228 220 214 210 209 208 206 202 201 201 203 207 209 208 205
298 298 301 301 300 300 303 304 305 305 305 303 302 302 302 303 305 306 306 304 302 300 298 297 294 290 286 284 281 279 276 275 275 277 279 281 283 284 283 282 280 279 277 276 275 274 272 271 270 269 269 269 268 267 265 260 254 248 243 239 236 234 232 232 233 234 236 237 237 238 237 233 225 216 210 210 211 213 212 211 210 209 210 211 208 204
294 295 297 296 294 295 296 298 299 301 301 300 300 300 300 302 302 302 301 300 299 297 294 292 290 288 286 283 281 280 281 284 287 288 286 284 283 282 280 279 278 276 275 274 274 274 274 273 273 272 271 271 271 270 268 264 258 252 246 241 237 234 232 231 231 232 233 233 234 234 235 234 229 221 213 210 211 213 215 214 212 209 209 209 206 201
291 292 293 292 292 291 289 290 293 295 296 297 298 299 299 298 297 296 295 294 292 291 290 290 291 291 290 290 289 290 294 298 297 294 287 281 277 275 275 274 273 272 272 272 273 274 275 275 275 275 274 274 273 272 271 267 262 255 248 243 238 235 233 232 231 231 232 232 231 231 231 231 229 225 217 212 209 209 210 209 207 205 206 205 201 195
287 290 291 289 290 291 290 289 290 292 294 294 295 297 297 296 295 294 292 290 288 288 292 296 297 296 294 294 295 295 296 291 286 281 275 271 268 268 268 268 269 269 270 271 273 274 276 276 277 276 276 275 275 274 273 270 265 260 253 247 242 238 235 233 233 233 234 233 231 229 228 228 227 225 220 214 210 206 204 203 202 203 205 203 197 189
281 286 289 288 287 287 289 290 292 295 296 294 292 291 291 293 295 295 293 291 290 291 296 297 296 295 293 290 288 286 284 279 274 269 265 263 261 261 261 262 263 265 267 270 272 274 275 275 275 275 274 274 274 273 273 271 268 264 259 254 249 244 240 237 236 235 236 235 232 229 226 225 225 223 221 216 211 206 201 199 200 203 206 201 192 182
281 284 287 287 285 284 284 288 292 296 297 294 290 287 285 288 291 293 293 292 293 293 293 291 290 290 290 288 285 282 280 277 274 270 267 264 263 262 261 260 261 263 266 269 271 273 274 274 273 273 272 272 272 271 271 270 268 266 263 259 255 250 245 242 239 237 236 234 232 229 226 225 224 222 219 215 210 206 202 201 203 205 205 196 185 176
285 286 285 285 285 286 285 287 289 292 294 293 291 289 286 285 286 287 288 289 291 292 291 289 285 281 279 281 282 282 279 276 274 272 270 268 265 264 263 262 263 265 267 270 272 272 272 272 272 272 272 271 270 269 268 268 267 265 264 262 259 255 250 246 243 239 236 233 231 229 226 225 223 221 217 213 210 208 205 206 206 205 199 187 178 171
288 289 288 286 286 285 286 288 289 290 290 289 289 288 287 286 284 281 280 281 284 286 288 287 284 278 273 276 282 287 288 284 281 277 273 269 265 264 264 264 264 265 266 270 272 272 271 272 272 272 271 270 269 267 266 266 265 263 262 261 260 257 254 250 246 242 238 234 231 229 226 224 222 220 216 213 211 209 208 207 203 195 186 178 172 169
292 292 290 288 286 285 285 287 288 288 287 286 284 283 283 284 283 280 277 277 278 281 282 282 283 285 287 291 293 294 292 289 285 279 268 255 238 224 225 244 253 257 259 265 269 270 269 271 273 272 269 268 267 266 265 264 262 261 260 259 259 258 256 253 249 245 240 236 233 230 227 225 222 219 216 213 210 208 207 202 191 178 171 169 168 168
294 294 291 288 287 287 287 287 286 284 283 282 281 281 281 280 278 277 276 276 278 280 281 281 284 287 289 290 289 285 280 275 272 269 265 252 223 201 202 231 248 255 257 261 266 268 267 266 267 267 267 264 263 264 264 264 262 260 258 258 257 257 256 254 251 247 243 239 235 232 229 225 222 219 216 212 206 202 200 192 178 165 161 162 164 166
294 292 290 289 288 287 288 286 283 281 280 280 280 279 279 276 274 273 272 273 276 280 281 285 287 287 282 275 268 261 257 254 255 261 268 266 252 203 213 257 266 268 267 266 268 270 269 260 256 256 260 261 262 263 264 264 263 261 259 258 258 257 256 255 253 250 246 242 238 234 230 225 221 217 213 206 197 189 184 174 165 158 156 158 161 163
291 290 287 286 286 285 285 282 279 278 279 278 277 274 270 269 269 269 269 271 274 277 277 280 282 283 283 280 268 245 217 221 257 286 294 294 304 334 346 286 277 277 275 271 269 267 263 256 253 252 255 259 263 265 266 266 265 264 262 260 259 258 257 256 254 252 249 245 241 236 230 225 220 214 207 195 183 172 165 160 157 155 155 157 158 159
289 288 285 283 283 282 282 280 278 277 276 275 273 270 266 265 265 267 268 270 272 274 275 274 272 273 280 284 279 247 104 42 343 323 312 300 294 285 142 209 253 265 269 268 265 261 256 252 249 249 254 261 264 267 269 269 268 267 265 264 262 261 260 259 257 255 252 248 243 237 230 223 216 206 194 180 169 161 155 154 154 154 155 156 157 157
289 287 285 283 281 279 277 276 277 277 275 272 272 271 271 268 268 268 270 270 271 272 274 273 270 269 272 277 279 287 349 327 316 305 295 288 282 274 245 244 251 257 261 262 262 260 253 249 248 251 256 262 266 269 271 271 271 269 268 267 266 265 265 263 261 258 255 250 245 238 229 219 206 193 179 169 161 156 153 153 153 154 155 156 157 157
289 285 281 279 277 275 272 271 271 272 273 274 274 274 274 275 275 274 273 274 275 275 275 274 274 275 277 281 285 290 298 302 297 287 279 276 274 271 262 256 254 255 257 258 257 256 249 246 249 254 258 263 267 271 273 273 273 271 270 269 268 268 268 266 263 260 256 251 244 235 224 208 192 178 169 162 158 155 153 153 153 153 154 155 155 155
285 279 274 272 272 272 270 268 269 272 277 281 281 280 280 284 286 286 286 289 289 288 287 284 283 284 288 287 288 291 297 296 290 282 277 273 270 267 260 252 248 249 253 254 252 248 238 239 242 250 258 265 269 272 274 274 273 272 271 270 269 268 267 265 262 259 254 249 239 226 209 190 176 166 160 156 153 151 150 149 149 149 149 150 151 151
280 276 272 269 268 267 269 272 275 280 287 290 291 292 296 301 304 305 305 302 298 294 291 288 287 288 289 287 288 289 292 288 282 277 278 273 270 267 259 245 240 243 247 250 248 237 219 225 234 248 259 267 272 275 276 276 274 273 271 270 268 267 265 262 259 254 249 239 223 202 181 168 159 154 150 148 146 144 143 142 142 142 143 144 145 147
274 273 272 270 269 270 275 281 287 294 300 302 305 308 313 312 308 304 301 298 294 290 287 286 285 284 283 283 284 285 283 276 269 264 264 266 267 268 261 241 233 237 243 246 245 238 212 220 235 256 271 274 277 278 278 276 274 272 270 268 266 263 260 256 251 242 229 205 179 161 151 146 144 141 139 138 138 137 136 136 136 137 138 140 141 143
272 272 273 275 277 281 286 292 299 305 310 309 306 304 302 299 295 292 290 287 284 282 281 280 279 279 278 278 279 279 276 269 260 252 250 258 265 269 266 237 235 243 248 249 250 253 247 247 252 269 285 280 279 278 277 274 272 269 267 264 261 257 250 240 222 191 162 146 139 136 134 134 133 133 132 132 132 132 131 132 132 133 134 136 138 141
278 278 281 285 289 293 297 301 306 309 309 307 305 302 300 296 293 289 284 280 277 276 276 277 278 279 282 282 283 283 283 278 262 249 254 264 271 272 263 239 241 250 256 255 245 81 40 274 272 277 285 279 277 276 274 270 267 264 261 257 251 239 215 176 148 135 129 128 128 128 129 129 129 129 129 129 129 129 129 129 130 130 131 133 136 139
290 291 294 295 297 299 301 303 305 306 306 306 305 304 303 300 296 291 286 281 279 279 282 284 288 293 302 305 304 304 310 328 329 292 282 284 281 277 269 254 242 245 256 253 108 89 138 267 273 283 293 291 287 283 277 269 264 258 252 242 221 184 149 133 127 124 123 124 125 127 128 128 129 129 129 129 129 129 130 129 129 130 131 132 135 139
297 298 299 300 300 301 302 303 304 304 305 305 304 304 304 302 299 294 290 291 295 301 305 304 303 302 303 299 296 295 297 298 290 272 260 269 274 274 273 255 216 217 240 229 133 106 228 258 269 290 304 307 305 297 285 271 260 247 231 198 162 140 130 126 124 124 124 126 127 128 129 130 130 131 131 131 131 131 131 131 131 132 132 132 134 140
303 304 303 302 301 300 300 300 301 303 304 304 304 304 303 302 297 294 292 297 303 304 300 297 296 296 296 293 292 291 293 289 281 264 250 250 258 263 267 203 158 175 205 205 151 111 241 252 264 288 305 313 314 309 302 285 257 210 172 148 136 130 127 126 126 127 128 129 130 131 132 133 133 133 133 133 133 133 133 134 134 134 134 131 130 136
306 305 302 300 298 297 297 297 298 299 301 302 302 303 302 298 292 288 287 289 289 287 285 286 290 293 296 296 296 294 289 281 271 256 238 235 244 249 166 126 151 171 176 168 109 64 218 224 231 289 315 327 328 327 327 338 21 106 127 129 128 127 128 128 129 130 132 133 134 134 135 135 135 135 135 135 135 136 137 138 137 134 130 126 123 127
308 306 301 297 295 293 293 292 292 293 295 297 298 298 296 290 281 277 276 277 278 281 286 291 294 295 295 296 294 289 280 268 256 231 188 235 240 233 116 143 170 169 148 132 109 295 265 250 282 12 351 350 350 351 350 2 18 49 92 117 123 126 129 130 131 132 134 135 136 137 137 137 136 136 137 137 138 139 140 140 136 129 117 114 115 119
311 307 301 296 292 290 287 284 284 286 289 291 291 291 288 280 272 270 271 275 281 288 294 294 292 290 288 288 286 282 276 267 271 33 58 274 271 274 274 252 213 177 152 147 156 236 291 319 8 22 20 16 14 12 7 7 8 15 40 89 112 123 130 131 132 133 135 137 137 138 138 138 138 138 139 140 141 142 142 139 133 122 108 111 114 118
310 306 299 295 292 289 286 284 283 282 282 282 282 280 275 271 268 267 270 275 282 286 287 285 283 281 277 272 269 269 272 272 283 309 321 285 277 277 278 268 245 194 156 154 161 183 263 340 22 30 32 37 33 23 15 13 10 10 25 57 90 119 132 132 132 133 136 138 139 139 139 139 139 140 141 142 143 143 142 138 131 120 110 114 118 122
306 301 295 292 291 290 288 287 284 281 277 275 273 272 271 268 267 266 266 268 271 274 275 277 278 277 274 269 265 264 268 269 277 287 291 282 277 276 277 269 257 219 153 138 127 118 151 127 82 49 33 45 40 29 18 17 15 15 24 47 73 106 126 127 129 132 135 137 139 140 140 140 140 141 142 143 144 144 142 137 130 123 118 118 121 124
301 296 291 290 290 292 293 291 287 282 276 274 274 274 273 270 268 266 265 264 264 263 264 269 272 275 275 272 269 267 267 269 278 286 293 288 285 286 292 284 277 263 172 134 113 93 57 107 114 101 67 59 48 36 26 19 16 16 23 39 54 76 98 107 114 120 125 129 132 134 136 137 139 141 142 144 145 145 143 137 132 127 125 124 124 125
296 292 290 291 294 297 298 296 292 287 281 278 276 276 275 271 268 266 266 265 264 262 259 260 263 267 270 271 272 272 272 274 285 294 299 296 296 297 296 287 282 276 250 186 149 133 125 166 166 151 120 87 60 38 29 18 16 21 32 39 45 51 61 80 93 102 106 109 112 115 121 127 133 137 141 146 148 147 143 137 133 131 132 133 132 130
292 291 291 297 300 302 301 300 299 296 292 285 279 275 273 272 271 270 270 269 269 268 265 262 261 260 261 263 267 271 276 283 294 301 303 299 296 293 288 282 278 272 261 235 202 176 165 168 168 162 142 118 91 54 26 14 24 38 47 45 45 48 53 68 82 92 98 100 101 102 105 113 120 129 138 149 150 149 144 139 136 136 138 140 141 140
290 291 295 302 304 304 302 303 303 303 300 295 289 282 280 280 279 278 276 274 272 271 270 268 265 262 259 257 259 265 276 290 300 303 300 294 286 278 273 272 269 263 253 242 225 201 179 165 160 158 149 128 116 106 87 54 53 56 55 51 51 52 53 65 79 92 98 101 103 104 105 109 116 127 140 150 151 148 143 140 139 140 144 146 148 148
289 292 299 305 306 305 302 303 304 304 302 299 295 292 290 287 284 282 280 277 274 271 269 267 265 262 259 258 259 264 275 286 291 293 291 285 276 267 261 263 261 255 244 235 222 203 183 170 164 161 152 124 114 118 129 120 104 88 73 64 59 57 53 63 79 93 99 103 105 106 106 107 114 125 138 147 147 145 140 139 142 144 147 150 152 154
292 296 302 307 307 306 302 301 302 302 301 297 294 292 290 287 284 281 278 276 272 269 265 263 261 258 255 255 258 264 272 279 284 286 286 282 276 267 259 259 256 251 236 224 210 194 181 175 169 162 151 131 121 120 127 124 120 116 111 88 67 54 43 53 74 92 103 105 105 104 99 98 102 109 119 128 132 133 134 137 142 146 148 150 152 154
295 298 302 305 305 304 300 298 297 297 297 294 292 291 289 286 283 280 276 274 273 269 264 259 256 253 250 250 255 261 269 277 284 287 287 285 281 273 261 255 250 240 213 194 182 177 174 170 162 153 145 140 141 142 142 136 137 139 135 116 91 59 35 43 58 77 95 99 101 102 98 94 95 98 100 105 113 122 129 130 136 141 144 144 145 148
299 300 301 303 303 301 297 295 294 292 293 292 292 290 289 288 286 285 285 283 282 278 272 263 256 250 243 240 241 248 259 275 286 292 295 298 296 291 275 262 242 204 164 147 140 140 149 146 144 141 139 142 143 144 144 148 154 154 143 127 118 106 71 51 51 64 83 91 97 101 104 99 94 91 88 85 85 91 105 111 116 120 123 124 133 141
298 299 300 300 300 299 297 295 293 291 290 290 290 290 290 290 290 291 293 293 292 290 283 272 262 254 248 240 236 237 247 273 293 304 308 313 317 319 315 311 301 170 141 128 119 113 117 128 136 142 147 147 145 142 140 147 150 146 132 123 117 108 80 51 37 45 79 90 93 95 99 94 88 82 81 76 71 71 86 105 114 117 113 104 108 122
297 297 298 297 296 295 295 295 294 294 295 294 293 291 291 290 290 291 293 292 292 292 290 280 268 257 253 251 247 247 252 275 301 315 325 333 340 345 346 346 348 5 93 115 114 107 97 101 112 128 144 146 144 142 139 136 127 117 113 128 127 120 101 60 23 33 70 80 81 81 84 84 83 80 78 74 68 64 70 91 102 107 108 105 98 94
296 296 297 296 295 294 295 296 298 299 299 298 296 294 293 291 290 291 291 289 288 288 286 276 260 245 237 240 248 261 274 290 311 328 342 356 3 8 9 9 10 16 32 71 98 105 97 87 82 84 100 125 131 133 133 128 121 116 116 118 113 109 112 120 115 90 76 73 70 69 75 85 88 84 76 67 58 50 51 62 66 70 79 86 92 94
297 298 298 297 297 298 299 301 302 302 301 299 297 296 296 293 292 292 289 287 286 284 280 273 260 241 222 221 229 255 288 306 329 346 355 6 11 16 21 25 29 33 38 47 59 77 92 93 90 84 81 94 104 113 119 120 117 111 100 84 77 77 82 95 103 103 96 86 77 72 76 89 92 88 77 63 52 47 48 60 67 73 73 79 89 99
300 301 300 299 299 299 300 303 304 304 302 299 298 297 296 294 292 289 286 284 282 280 275 266 250 234 232 241 252 290 326 340 353 2 10 13 17 20 25 32 39 45 52 53 54 57 64 73 84 93 94 89 85 87 97 109 112 108 99 92 89 87 85 81 81 87 97 98 94 87 82 82 83 84 82 72 59 47 38 48 60 72 80 85 92 100
303 303 301 300 298 298 300 304 305 305 303 301 300 299 298 296 293 289 284 282 281 279 277 263 243 227 243 256 5 38 20 10 7 10 13 17 20 24 28 35 42 49 59 61 61 59 57 53 54 67 92 96 91 83 77 89 99 105 108 107 105 101 95 84 73 72 86 99 106 106 89 81 82 85 90 84 70 52 35 34 40 51 66 83 94 101
304 302 300 299 299 299 302 306 307 306 304 302 301 301 300 299 299 298 294 291 288 286 285 273 249 236 262 31 58 59 51 38 25 19 19 19 21 24 27 33 42 51 58 63 65 64 61 55 50 48 57 79 95 99 92 85 88 97 106 109 109 107 104 97 83 73 79 93 100 102 92 94 103 110 110 97 83 66 47 34 26 24 31 59 88 104
302 300 299 298 299 301 304 307 308 306 304 304 304 304 304 302 303 304 301 298 292 287 280 282 283 293 46 68 65 60 53 47 41 33 27 24 22 22 20 23 32 44 55 59 61 63 64 60 55 50 46 54 75 95 100 92 88 88 91 98 104 109 111 108 100 91 88 89 83 70 61 76 97 114 118 114 107 96 77 51 26 14 11 30 67 99
300 299 297 297 299 302 305 307 307 306 305 305 306 307 308 308 309 307 301 295 289 286 282 291 312 28 68 72 67 62 55 48 43 37 33 28 23 18 12 7 8 15 32 38 43 47 55 58 56 52 48 48 55 74 99 101 98 91 83 84 92 103 113 114 114 110 106 99 84 71 65 65 72 86 103 114 116 113 101 85 48 10 0 16 51 89
300 299 297 298 299 302 305 307 307 306 305 306 307 308 310 311 312 311 306 301 300 302 308 320 1 63 76 76 70 62 54 48 41 34 30 25 21 16 13 5 2 3 10 19 23 26 35 45 48 46 43 41 43 51 91 107 109 103 94 85 83 90 104 112 114 113 108 98 86 78 81 81 81 87 102 115 120 120 117 123 136 292 327 16 74 107